sat.trackr.live / text

‹ back to catalog

YAOGAN-39 03A

NORAD 57986 · 2023-152A

PAYLOAD ACTIVE UNKNOWN

§ Identity

Operator
Country
PRC
Launch date
2023-10-05
Launch site
XICLF
Launch vehicle
Mass (kg)
RCS (m²)

External: N2YO · Heavens-Above · Gunter

§ Orbital elements

Epoch: 2026-05-25T04:30:11.847168Z

Period
94.55 min
Inclination
35.0009°
Eccentricity
0.0005262
Mean motion
15.23059580 rev/d
Perigee alt
493.0 km
Apogee alt
500.2 km
Semi-major
6,874.8 km
B*
3.6713e-4
RAAN
57.1691°
Arg perigee
309.7163°
Mean anomaly
50.3087°
Rev number
14,693

§ Raw data

YAOGAN-39 03A1 57986U 23152A   26145.18763712  .00008836  00000+0  36713-3 0  99982 57986  35.0009  57.1691 0005262 309.7163  50.3087 15.23059580146931

JSON: /api/v1/satellites/57986 · /tle

For live sub-satellite position, see the globe view (requires WebGL).

§ Visibility from observer

Set your observer location to see the next 7 days of passes ≥ 10°. The values pass through the URL so the page stays shareable.

No JS? Fill the form by hand. The geolocation button needs JavaScript.